sat.trackr.live / text

‹ back to catalog

STARLINK-30471

NORAD 57932 · 2023-147V

PAYLOAD ACTIVE UNKNOWN

§ Identity

Operator
Country
US
Launch date
2023-09-24
Launch site
AFETR
Launch vehicle
Mass (kg)
RCS (m²)

Purposes: comms

External: N2YO · Heavens-Above · Gunter

§ Orbital elements

Epoch: 2026-09-20T10:07:29.021088Z

Period
94.27 min
Inclination
43.0016°
Eccentricity
0.0000883
Mean motion
15.27572103 rev/d
Perigee alt
482.5 km
Apogee alt
483.7 km
Semi-major
6,861.2 km
B*
-1.5551e-5
RAAN
305.1313°
Arg perigee
280.6588°
Mean anomaly
79.4164°
Rev number
16,638

§ Raw data

STARLINK-304711 57932U 23147V   26263.42186367 -.00000690  00000+0 -15551-4 0  99962 57932  43.0016 305.1313 0000883 280.6588  79.4164 15.27572103166382

JSON: /api/v1/satellites/57932 · /tle

For live sub-satellite position, see the globe view (requires WebGL).

§ Visibility from observer

Set your observer location to see the next 7 days of passes ≥ 10°. The values pass through the URL so the page stays shareable.

No JS? Fill the form by hand. The geolocation button needs JavaScript.